Location: Bagnara
(41.0500°N, 14.7833°E)
Time: 08:51:37
(UTC+00:00)

IDEFIX/ARIANE 42P - Pass Details

Date: 20 June 2021
Orbit: 784 x 803 km, 98.4° (Epoch: 26 July)

Event Time Altitude Azimuth Distance (km) Brightness Sun altitude
Rises 01:40:40 0° 13° (NNE) 3,312 7.0 -15.8°
Reaches altitude 10° 01:43:01 10° 15° (NNE) 2,375 6.1 -15.5°
Maximum altitude 01:48:16 83° 103° (ESE) 803 2.6 -14.9°
Enters shadow 01:52:17 17° 191° (S) 1,881 4.0 -14.4°
